Flag for Canada Weather past 2 weeks in Maple Ridge, British Columbia, Canada

Now
64 °F

Mild.


Feels Like: 64 °F
Forecast: 54 / 72 °F
Wind: 5 mph from East

Location: P. Meadows Coastal Station

Current Time: Jul 22, 2014 at 12:46:44 PM

Latest Report: Jul 22, 2014 at 9:00 AM


Visibility: N/A

Pressure: 30.03 "Hg

Humidity: 66%

Dew point: 53 °F

Location of Maple RidgeLocation

Historic Weather in Maple Ridge — Graph

°F

Maple Ridge temperature yesterday

Maximum temperature yesterday: 73 °F (at 4:00 PM)
Minimum temperature yesterday: 56 °F (at 7:00 AM)
Average temperature yesterday: 64 °F

Past Weeks' High & Low Weather Summary

 TemperatureHumidityPressure
High92 °F (Jul 13, 5:00 PM)97% (Jul 11, 6:00 AM)30.14 "Hg (Jul 11, 6:00 AM)
Low52 °F (Jul 22, 5:00 AM)27% (Jul 13, 5:00 PM)29.87 "Hg (Jul 10, 6:00 PM)
Average69 °F67%30.00 "Hg
* Reported Jul 7 9:00 AM — Jul 22 9:00 AM, Maple Ridge, Weather by CustomWeather, © 2014

Note: Actual official high and low records may vary slightly from our data, if they occured in-between our weather recording intervals... More about our weather records

Advertising

Maple Ridge weather history for previous 24 hours

 ConditionsComfort  
Time TempWeatherWind HumidityBarometerVisibility
9:00 AM
Jul 22
64 °FMild.5 mph66%30.03 "HgN/A
8:00 AM62 °FCool.3 mph76%30.03 "HgN/A
7:00 AM57 °FCool.3 mph88%30.02 "HgN/A
6:00 AM53 °FCool.1 mph96%30.02 "HgN/A
5:00 AM52 °FCool.1 mph92%30.01 "HgN/A
4:00 AM55 °FCool.1 mph88%30.01 "HgN/A
3:00 AM54 °FCool.1 mph83%30.01 "HgN/A
2:00 AM55 °FCool.2 mph93%30.01 "HgN/A
1:00 AM56 °FCool.No wind88%30.00 "HgN/A
12:00 AM58 °FCool.No wind85%30.00 "HgN/A
11:00 PM
Jul 21
58 °FCool.No wind81%29.99 "HgN/A
10:00 PM61 °FCool.No wind71%29.99 "HgN/A
9:00 PM66 °FMild.2 mph56%29.98 "HgN/A
8:00 PM67 °FMild.3 mph52%29.98 "HgN/A
7:00 PM72 °FMild.3 mph42%29.97 "HgN/A
6:00 PM72 °FMild.5 mph40%29.98 "HgN/A
5:00 PM72 °FMild.6 mph39%29.99 "HgN/A
4:00 PM73 °FMild.3 mph44%30.00 "HgN/A
3:00 PM72 °FMild.7 mph50%30.01 "HgN/A
2:00 PM72 °FMild.2 mph48%30.01 "HgN/A
1:00 PM70 °FMild.3 mph50%30.02 "HgN/A
12:00 PM67 °FMild.5 mph57%30.03 "HgN/A
Weather by CustomWeather, © 2014

See weather overviewHow to use our weather pages